Farmington, MO

10:59 AM CST on December 16, 2017 (GMT -0600)
Farmington Regional

Weather History for KFAM - February, 2014

Change the Weather History Date:

Monday, February 17, 2014

  Actual Average Record
Temperature  
Mean Temperature 38 °F -  
Max Temperature 51 °F 45 °F 70 °F (2017)
Min Temperature 26 °F 29 °F 1 °F (2015)
Degree Days  
Heating Degree Days 26    
Moisture  
Dew Point 27 °F    
Average Humidity 69    
Maximum Humidity 100    
Minimum Humidity 37    
Precipitation  
Precipitation 0.02 in - - ()
Sea Level Pressure  
Sea Level Pressure 29.98 in    
Wind  
Wind Speed 9 mph (SSW)    
Max Wind Speed 26 mph    
Max Gust Speed 34 mph    
Visibility 7 miles    
Events      
Averages and records for this station are not official NWS values.
T = Trace of Precipitation, MM = Missing Value Source: NWS Daily Summary

Daily Weather History Graph

Daily Weather History Graph

Search for Another Location

Airport or City:

Trip Planner

Search our weather history database for the weather conditions in past years. The results will help you decide how hot, cold, wet, or windy it might be!

Date:

Astronomy

Feb. 17, 2014 Rise Set
Actual Time 6:48 AM CST 5:43 PM CST
Civil Twilight 6:22 AM CST 6:09 PM CST
Nautical Twilight 5:51 AM CST 6:40 PM CST
Astronomical Twilight 5:21 AM CST 7:10 PM CST
Moon 8:33 PM CST (2/17) 7:53 AM CST (2/17)
Length of Visible Light 11h 47m
Length of Day
10h 54m
Waning Gibbous, 93% of the Moon is Illuminated
Feb 17
Waning Gibbous
Feb 22
Last Quarter
Mar 1
New
Mar 8
First Quarter
Mar 16
Full

Hourly Weather History & Observations

Time (CST) Temp. Windchill Dew Point Humidity Pressure Visibility Wind Dir Wind Speed Gust Speed Precip Events Conditions
12:15 AM 26.6 °F 19.1 °F 23.0 °F 86% 30.14 in 7.0 mi SE 6.9 mph - N/A   Scattered Clouds
12:35 AM 26.6 °F 20.0 °F 23.0 °F 86% 30.14 in 7.0 mi SE 5.8 mph - N/A   Overcast
12:55 AM 26.6 °F 19.1 °F 21.2 °F 80% 30.12 in 6.0 mi ESE 6.9 mph - N/A   Overcast
1:15 AM 26.6 °F 20.0 °F 23.0 °F 86% 30.12 in 6.0 mi ESE 5.8 mph - N/A   Scattered Clouds
1:35 AM 26.6 °F 21.2 °F 23.0 °F 86% 30.11 in 5.0 mi ESE 4.6 mph - N/A   Mostly Cloudy
1:55 AM 26.6 °F 20.0 °F 23.0 °F 86% 30.11 in 5.0 mi ESE 5.8 mph - N/A   Partly Cloudy
2:15 AM 26.6 °F 18.2 °F 23.0 °F 86% 30.08 in 5.0 mi ESE 8.1 mph - N/A   Clear
2:35 AM 26.6 °F 16.2 °F 24.8 °F 93% 30.07 in 5.0 mi East 11.5 mph - N/A   Mostly Cloudy
2:55 AM 26.6 °F 17.5 °F 23.0 °F 86% 30.06 in 6.0 mi ESE 9.2 mph - N/A   Overcast
3:15 AM 26.6 °F 17.5 °F 24.8 °F 93% 30.05 in 6.0 mi SE 9.2 mph - N/A   Overcast
3:35 AM 28.4 °F 21.2 °F 24.8 °F 86% 30.05 in 7.0 mi SE 6.9 mph - N/A   Overcast
3:55 AM 28.4 °F 19.1 °F 24.8 °F 86% 30.04 in 7.0 mi SSE 10.4 mph - N/A   Overcast
4:15 AM 28.4 °F 18.5 °F 24.8 °F 86% 30.04 in 7.0 mi SE 11.5 mph - N/A   Overcast
4:35 AM 28.4 °F 19.1 °F 24.8 °F 86% 30.02 in 7.0 mi SSE 10.4 mph - N/A   Overcast
4:55 AM 28.4 °F 18.5 °F 24.8 °F 86% 30.01 in 7.0 mi SE 11.5 mph 17.3 mph N/A   Overcast
5:15 AM 28.4 °F 18.5 °F 24.8 °F 86% 29.99 in 6.0 mi SE 11.5 mph - N/A   Mostly Cloudy
5:35 AM 28.4 °F 19.7 °F 24.8 °F 86% 29.98 in 6.0 mi SSE 9.2 mph - N/A   Mostly Cloudy
5:55 AM 28.4 °F 20.4 °F 24.8 °F 86% 29.98 in 6.0 mi SSE 8.1 mph - N/A   Overcast
6:15 AM 28.4 °F 19.7 °F 24.8 °F 86% 29.97 in 7.0 mi SSE 9.2 mph - N/A   Overcast
6:35 AM 30.2 °F 22.6 °F 26.6 °F 86% 29.96 in 7.0 mi SSE 8.1 mph - N/A   Overcast
6:55 AM 30.2 °F 19.8 °F 26.6 °F 86% 29.96 in 6.0 mi SSE 13.8 mph - N/A   Overcast
7:15 AM 30.2 °F 20.8 °F 26.6 °F 86% 29.94 in 5.0 mi SSE 11.5 mph 17.3 mph N/A   Overcast
7:35 AM 30.2 °F 20.2 °F 26.6 °F 86% 29.91 in 5.0 mi SE 12.7 mph - N/A   Overcast
7:55 AM 32.0 °F 23.0 °F 26.6 °F 80% 29.91 in 6.0 mi South 11.5 mph - N/A   Overcast
8:15 AM 33.8 °F 24.8 °F 26.6 °F 75% 29.89 in 7.0 mi SE 12.7 mph - N/A   Overcast
8:35 AM 33.8 °F 24.8 °F 28.4 °F 81% 29.88 in 7.0 mi South 12.7 mph 18.4 mph N/A   Overcast
8:55 AM 33.8 °F 26.4 °F 30.2 °F 87% 29.87 in 4.0 mi South 9.2 mph - N/A   Overcast
9:15 AM 33.8 °F 24.8 °F 30.2 °F 87% 29.87 in 2.5 mi South 12.7 mph 16.1 mph 0.01 in   Overcast
9:35 AM 33.8 °F 24.3 °F 30.2 °F 87% 29.86 in 3.0 mi South 13.8 mph 18.4 mph 0.01 in   Overcast
9:55 AM 33.8 °F 24.3 °F 30.2 °F 87% 29.85 in 3.0 mi South 13.8 mph - 0.01 in   Overcast
10:15 AM 33.8 °F 22.8 °F 30.2 °F 87% 29.84 in 3.0 mi South 18.4 mph 25.3 mph N/A   Overcast
10:35 AM 33.8 °F 24.3 °F 32.0 °F 93% 29.83 in 3.0 mi South 13.8 mph - N/A   Overcast
10:55 AM 35.6 °F 27.1 °F 32.0 °F 87% 29.83 in 2.5 mi SSW 12.7 mph 16.1 mph N/A   Overcast
11:15 AM 35.6 °F 27.1 °F 33.8 °F 93% 29.83 in 3.0 mi SSW 12.7 mph 18.4 mph N/A   Overcast
11:35 AM 35.6 °F 27.1 °F 33.8 °F 93% 29.83 in 2.5 mi SSW 12.7 mph - N/A   Overcast
11:55 AM 35.6 °F 27.5 °F 33.8 °F 93% 29.84 in 2.0 mi SSW 11.5 mph - N/A   Overcast
12:15 PM 37.4 °F 32.1 °F 35.6 °F 93% 29.83 in 1.8 mi SSW 6.9 mph - N/A   Overcast
12:35 PM 37.4 °F 30.8 °F 37.4 °F 100% 29.83 in 3.0 mi WSW 9.2 mph - N/A   Overcast
12:55 PM 42.8 °F 37.5 °F 41.0 °F 93% 29.83 in 5.0 mi WSW 9.2 mph 16.1 mph N/A   Overcast
1:15 PM 44.6 °F 39.2 °F 39.2 °F 81% 29.85 in 7.0 mi West 10.4 mph 19.6 mph N/A   Mostly Cloudy
1:35 PM 44.6 °F 39.2 °F 39.2 °F 81% 29.85 in 8.0 mi WNW 10.4 mph 19.6 mph N/A   Overcast
1:55 PM 48.2 °F - 39.2 °F 71% 29.86 in 10.0 mi West 13.8 mph 23.0 mph N/A   Mostly Cloudy
2:15 PM 51.8 °F - 37.4 °F 58% 29.88 in 10.0 mi WNW 26.5 mph 34.5 mph 0.01 in   Scattered Clouds
2:35 PM 51.8 °F - 37.4 °F 58% 29.90 in 10.0 mi WNW 16.1 mph 29.9 mph 0.01 in   Scattered Clouds
2:55 PM 51.8 °F - 33.8 °F 50% 29.91 in 10.0 mi WNW 24.2 mph 32.2 mph 0.01 in   Clear
3:15 PM 51.8 °F - 32.0 °F 47% 29.93 in 10.0 mi WNW 17.3 mph 31.1 mph N/A   Clear
3:35 PM 50.0 °F - 32.0 °F 50% 29.93 in 10.0 mi WNW 16.1 mph 24.2 mph N/A   Clear
3:55 PM 50.0 °F - 30.2 °F 47% 29.94 in 10.0 mi WNW 11.5 mph 21.9 mph N/A   Clear
4:15 PM 50.0 °F - 28.4 °F 43% 29.95 in 10.0 mi NW 12.7 mph 29.9 mph N/A   Clear
4:35 PM 50.0 °F - 28.4 °F 43% 29.96 in 10.0 mi WNW 13.8 mph 20.7 mph N/A   Clear
4:55 PM 50.0 °F - 28.4 °F 43% 29.97 in 10.0 mi WNW 10.4 mph 20.7 mph N/A   Clear
5:15 PM 48.2 °F - 26.6 °F 43% 29.99 in 10.0 mi West 13.8 mph 19.6 mph N/A   Clear
5:35 PM 48.2 °F - 26.6 °F 43% 30.02 in 10.0 mi West 8.1 mph 16.1 mph N/A   Clear
5:55 PM 46.4 °F 41.9 °F 26.6 °F 46% 30.03 in 10.0 mi WNW 9.2 mph 18.4 mph N/A   Clear
6:15 PM 46.4 °F 42.4 °F 26.6 °F 46% 30.03 in 10.0 mi West 8.1 mph - N/A   Clear
6:35 PM 46.4 °F 42.4 °F 24.8 °F 43% 30.04 in 10.0 mi WNW 8.1 mph - N/A   Clear
6:55 PM 46.4 °F 42.9 °F 24.8 °F 43% 30.05 in 10.0 mi WNW 6.9 mph - N/A   Clear
7:15 PM 46.4 °F 41.9 °F 24.8 °F 43% 30.05 in 10.0 mi West 9.2 mph - N/A   Clear
7:35 PM 46.4 °F 41.9 °F 23.0 °F 40% 30.06 in 10.0 mi West 9.2 mph 17.3 mph N/A   Clear
7:55 PM 46.4 °F 42.9 °F 21.2 °F 37% 30.07 in 10.0 mi West 6.9 mph - N/A   Clear
8:15 PM 44.6 °F 41.4 °F 21.2 °F 39% 30.07 in 10.0 mi West 5.8 mph - N/A   Clear
8:35 PM 42.8 °F 38.6 °F 19.4 °F 39% 30.08 in 10.0 mi West 6.9 mph - N/A   Clear
8:55 PM 42.8 °F 39.3 °F 19.4 °F 39% 30.08 in 10.0 mi WSW 5.8 mph - N/A   Clear
9:15 PM 42.8 °F 41.1 °F 19.4 °F 39% 30.09 in 10.0 mi West 3.5 mph - N/A   Clear
9:35 PM 42.8 °F 41.1 °F 19.4 °F 39% 30.09 in 10.0 mi WSW 3.5 mph - N/A   Clear
9:55 PM 42.8 °F 41.1 °F 19.4 °F 39% 30.10 in 10.0 mi SW 3.5 mph - N/A   Clear
10:15 PM 41.0 °F 37.1 °F 19.4 °F 42% 30.10 in 10.0 mi SW 5.8 mph - N/A   Clear
10:35 PM 39.2 °F 37.0 °F 19.4 °F 45% 30.09 in 10.0 mi SW 3.5 mph - N/A   Clear
10:55 PM 39.2 °F 35.9 °F 19.4 °F 45% 30.10 in 10.0 mi SW 4.6 mph - N/A   Clear
11:15 PM 37.4 °F 34.9 °F 17.6 °F 45% 30.09 in 10.0 mi WSW 3.5 mph - N/A   Clear
11:35 PM 37.4 °F 34.9 °F 19.4 °F 48% 30.09 in 10.0 mi SW 3.5 mph - N/A   Clear
11:55 PM 39.2 °F 35.9 °F 19.4 °F 45% 30.09 in 10.0 mi SSW 4.6 mph - N/A   Clear